• In Russia
  • List of Countries
  • For 7 days
  • Water Temperature
  • Satellite Maps
  • Weather Map
  • Weather Widgets
  • user-avatar
    Login

    Hourly Weather Sankt Polten

    Today, 27 February, Monday

    Time Temperature Precipitation Wind Pressure Humidity
    00:00 +4°C° 0 mm 1 mps 735 mmHg 81%
    01:00 +3°C° 0 mm 1 mps 735 mmHg 77%
    02:00 +3°C° 0 mm 1 mps 735 mmHg 78%
    03:00 +3°C° 0 mm 1 mps 734 mmHg 78%
    04:00 +3°C° 0 mm 1 mps 734 mmHg 78%
    05:00 +3°C° 0 mm 1 mps 734 mmHg 79%
    06:00 +3°C° 0 mm 1 mps 734 mmHg 79%
    07:00 +3°C° 0 mm 1 mps 734 mmHg 73%
    08:00 +5°C° 0 mm 1 mps 734 mmHg 69%
    09:00 +7°C° 0 mm 1 mps 733 mmHg 65%
    10:00 +9°C° 0 mm 1 mps 733 mmHg 62%
    11:00 +9°C° 0 mm 2 mps 732 mmHg 61%
    12:00 +10°C° 0 mm 2 mps 732 mmHg 61%
    13:00 +12°C° 0 mm 2 mps 731 mmHg 61%
    14:00 +12°C° 0 mm 2 mps 731 mmHg 65%
    15:00 +11°C° 0 mm 1 mps 730 mmHg 69%
    16:00 +11°C° 0 mm 1 mps 729 mmHg 73%
    17:00 +9°C° 0 mm 1 mps 729 mmHg 79%
    18:00 +7°C° 0 mm 1 mps 729 mmHg 84%
    19:00 +5°C° 0 mm 1 mps 728 mmHg 90%
    20:00 +5°C° 0 mm 1 mps 728 mmHg 90%
    21:00 +4°C° 0 mm 1 mps 728 mmHg 89%
    22:00 +4°C° 0 mm 1 mps 728 mmHg 89%
    23:00 +4°C° 0 mm 1 mps 727 mmHg 88%

    Tomorrow, 28 February, Tuesday

    Time Temperature Precipitation Wind Pressure Humidity
    00:00 +4°C° 0 mm 1 mps 727 mmHg 87%
    01:00 +3°C° 0 mm 1 mps 727 mmHg 86%
    02:00 +3°C° 0 mm 1 mps 726 mmHg 86%
    03:00 +3°C° 0 mm 1 mps 725 mmHg 86%
    04:00 +2°C° 0 mm 2 mps 725 mmHg 86%
    05:00 +2°C° 0 mm 2 mps 724 mmHg 87%
    06:00 +2°C° 0 mm 2 mps 723 mmHg 88%
    07:00 +2°C° 0 mm 2 mps 723 mmHg 88%
    08:00 +4°C° 0 mm 2 mps 723 mmHg 82%
    09:00 +5°C° 0 mm 3 mps 723 mmHg 75%
    10:00 +8°C° 0 mm 3 mps 724 mmHg 68%
    11:00 +9°C° 0 mm 3 mps 724 mmHg 68%
    12:00 +8°C° 0 mm 4 mps 725 mmHg 69%
    13:00 +10°C° 0 mm 4 mps 725 mmHg 69%
    14:00 +9°C° 0.3 mm 3 mps 725 mmHg 76%
    15:00 +8°C° 0.3 mm 2 mps 725 mmHg 82%
    16:00 +7°C° 0.3 mm 1 mps 724 mmHg 89%
    17:00 +7°C° 0.2 mm 1 mps 724 mmHg 91%
    18:00 +6°C° 0.2 mm 2 mps 723 mmHg 92%
    19:00 +5°C° 0.2 mm 2 mps 723 mmHg 94%
    20:00 +5°C° 0 mm 2 mps 722 mmHg 95%
    21:00 +4°C° 0 mm 3 mps 722 mmHg 95%
    22:00 +4°C° 0 mm 3 mps 722 mmHg 95%
    23:00 +4°C° 0.5 mm 4 mps 722 mmHg 93%

    Day after tomorrow, 1 March, Wednesday

    Time Temperature Precipitation Wind Pressure Humidity
    00:00 +3°C° 0.5 mm 5 mps 723 mmHg 91%
    01:00 +3°C° 0.5 mm 6 mps 723 mmHg 88%
    02:00 +2°C° 0.1 mm 6 mps 723 mmHg 88%
    03:00 +2°C° 0.1 mm 6 mps 724 mmHg 88%
    04:00 +1°C° 0.1 mm 6 mps 724 mmHg 88%
    05:00 +1°C° 0.1 mm 5 mps 725 mmHg 88%
    06:00 +1°C° 0.1 mm 5 mps 725 mmHg 88%
    07:00 +1°C° 0.1 mm 5 mps 726 mmHg 88%
    08:00 +1°C° 0 mm 5 mps 726 mmHg 85%
    09:00 +2°C° 0 mm 5 mps 727 mmHg 83%
    10:00 +2°C° 0 mm 5 mps 727 mmHg 80%
    11:00 +3°C° 0 mm 6 mps 728 mmHg 78%
    12:00 +4°C° 0 mm 6 mps 728 mmHg 75%
    13:00 +4°C° 0 mm 7 mps 728 mmHg 73%
    14:00 +4°C° 0.1 mm 6 mps 728 mmHg 75%
    15:00 +4°C° 0.1 mm 6 mps 729 mmHg 76%
    16:00 +4°C° 0.1 mm 6 mps 729 mmHg 77%
    17:00 +3°C° 0.1 mm 6 mps 730 mmHg 81%
    18:00 +3°C° 0.1 mm 5 mps 731 mmHg 84%
    19:00 +2°C° 0.1 mm 5 mps 732 mmHg 88%
    20:00 +2°C° 0 mm 5 mps 732 mmHg 88%
    21:00 +1°C° 0 mm 5 mps 733 mmHg 89%
    22:00 +1°C° 0 mm 5 mps 734 mmHg 89%
    23:00 +1°C° 0 mm 4 mps 734 mmHg 90%

    2 March, Thursday

    Time Temperature Precipitation Wind Pressure Humidity
    00:00 +1°C° 0 mm 3 mps 734 mmHg 91%
    01:00 +1°C° 0 mm 3 mps 734 mmHg 92%
    02:00 +2°C° 0 mm 2 mps 734 mmHg 91%
    03:00 +2°C° 0 mm 2 mps 734 mmHg 89%
    04:00 +2°C° 0 mm 2 mps 733 mmHg 88%
    05:00 +2°C° 0.2 mm 2 mps 733 mmHg 86%
    06:00 +3°C° 0.2 mm 2 mps 734 mmHg 84%
    07:00 +3°C° 0.2 mm 2 mps 734 mmHg 83%
    08:00 +4°C° 0.1 mm 2 mps 734 mmHg 80%
    09:00 +6°C° 0.1 mm 2 mps 734 mmHg 78%
    10:00 +7°C° 0.1 mm 2 mps 734 mmHg 76%
    11:00 +7°C° 0.1 mm 3 mps 734 mmHg 77%
    12:00 +8°C° 0.1 mm 3 mps 734 mmHg 79%
    13:00 +8°C° 0.1 mm 3 mps 734 mmHg 81%
    14:00 +8°C° 0.2 mm 3 mps 734 mmHg 83%
    15:00 +8°C° 0.2 mm 3 mps 734 mmHg 85%
    16:00 +8°C° 0.2 mm 3 mps 735 mmHg 88%
    17:00 +7°C° 0 mm 3 mps 735 mmHg 90%
    18:00 +7°C° 0 mm 3 mps 736 mmHg 91%
    19:00 +5°C° 0 mm 3 mps 736 mmHg 93%
    20:00 +4°C° 0 mm 3 mps 737 mmHg 94%
    21:00 +5°C° 0 mm 2 mps 737 mmHg 94%
    22:00 +4°C° 0 mm 2 mps 738 mmHg 95%
    23:00 +5°C° 0 mm 1 mps 738 mmHg 95%

    3 March, Friday

    Time Temperature Precipitation Wind Pressure Humidity
    00:00 +4°C° 0 mm 1 mps 737 mmHg 95%
    01:00 +4°C° 0 mm 1 mps 737 mmHg 94%
    02:00 +4°C° 0 mm 1 mps 737 mmHg 94%
    03:00 +4°C° 0 mm 1 mps 737 mmHg 94%
    04:00 +4°C° 0 mm 1 mps 737 mmHg 93%
    05:00 +3°C° 0 mm 2 mps 737 mmHg 94%
    06:00 +3°C° 0 mm 2 mps 737 mmHg 95%
    07:00 +3°C° 0 mm 2 mps 736 mmHg 96%
    08:00 +3°C° 0 mm 3 mps 736 mmHg 92%
    09:00 +5°C° 0 mm 3 mps 736 mmHg 88%
    10:00 +8°C° 0 mm 3 mps 736 mmHg 84%
    11:00 +8°C° 0 mm 4 mps 735 mmHg 81%
    12:00 +10°C° 0 mm 4 mps 734 mmHg 78%
    13:00 +11°C° 0 mm 4 mps 734 mmHg 75%
    14:00 +11°C° 0 mm 4 mps 733 mmHg 77%
    15:00 +11°C° 0 mm 4 mps 732 mmHg 78%
    16:00 +10°C° 0 mm 4 mps 732 mmHg 80%
    17:00 +8°C° 0 mm 4 mps 731 mmHg 84%
    18:00 +8°C° 0 mm 3 mps 731 mmHg 88%
    19:00 +7°C° 0 mm 3 mps 730 mmHg 92%
    20:00 +5°C° 0 mm 3 mps 730 mmHg 92%
    21:00 +5°C° 0 mm 3 mps 730 mmHg 93%
    22:00 +5°C° 0 mm 3 mps 729 mmHg 93%
    23:00 +5°C° 0 mm 3 mps 729 mmHg 93%

    4 March, Saturday

    Time Temperature Precipitation Wind Pressure Humidity
    00:00 +4°C° 0 mm 3 mps 729 mmHg 92%
    01:00 +4°C° 0 mm 3 mps 728 mmHg 92%
    02:00 +4°C° 0 mm 3 mps 728 mmHg 91%
    03:00 +5°C° 0 mm 2 mps 728 mmHg 91%
    04:00 +5°C° 0 mm 2 mps 728 mmHg 90%
    05:00 +4°C° 0 mm 3 mps 729 mmHg 90%
    06:00 +4°C° 0 mm 3 mps 730 mmHg 90%
    07:00 +4°C° 0 mm 3 mps 730 mmHg 90%
    08:00 +5°C° 0 mm 3 mps 731 mmHg 86%
    09:00 +8°C° 0 mm 2 mps 731 mmHg 82%
    10:00 +9°C° 0 mm 2 mps 732 mmHg 78%
    11:00 +10°C° 0 mm 2 mps 732 mmHg 74%
    12:00 +12°C° 0 mm 2 mps 732 mmHg 70%
    13:00 +13°C° 0 mm 1 mps 732 mmHg 66%
    14:00 +13°C° 0 mm 2 mps 732 mmHg 69%
    15:00 +13°C° 0 mm 2 mps 732 mmHg 72%
    16:00 +13°C° 0 mm 2 mps 731 mmHg 75%
    17:00 +10°C° 0 mm 2 mps 731 mmHg 81%
    18:00 +9°C° 0 mm 2 mps 731 mmHg 87%
    19:00 +7°C° 0 mm 2 mps 731 mmHg 93%
    20:00 +7°C° 0 mm 2 mps 731 mmHg 93%
    21:00 +7°C° 0 mm 2 mps 731 mmHg 92%
    22:00 +6°C° 0 mm 2 mps 731 mmHg 92%
    23:00 +6°C° 0 mm 2 mps 731 mmHg 91%
    Show more